Time,TemperatureF,DewpointF,PressureIn,WindDirection,WindDirectionDegrees,WindSpeedMPH,WindSpeedGustMPH,Humidity,HourlyPrecipIn,Conditions,Clouds,dailyrainin,SoftwareType,DateUTC
2013-05-10 00:02:00,60.0,58.0,29.88,South,180,2.0,3.0,94,-99.99,,,-99.99,,2013-05-10 05:02:00,
2013-05-10 00:12:00,60.0,58.0,29.88,SSW,202,0.0,-999.0,94,-99.99,,,-99.99,,2013-05-10 05:12:00,
2013-05-10 00:22:00,60.0,58.0,29.89,WSW,247,2.0,3.0,94,-99.99,,,-99.99,,2013-05-10 05:22:00,
2013-05-10 00:32:00,60.0,58.0,29.89,SW,225,3.0,4.0,95,-99.99,,,-99.99,,2013-05-10 05:32:00,
2013-05-10 00:42:00,60.0,59.0,29.88,WSW,247,3.0,3.0,96,-99.99,,,-99.99,,2013-05-10 05:42:00,
2013-05-10 00:52:00,60.0,59.0,29.88,WSW,247,2.0,3.0,95,-99.99,,,-99.99,,2013-05-10 05:52:00,
2013-05-10 01:01:00,61.0,59.0,29.89,West,270,3.0,4.0,95,-99.99,,,-99.99,,2013-05-10 06:01:00,
2013-05-10 01:12:00,61.0,60.0,29.89,SSW,202,5.0,8.0,96,-99.99,,,-99.99,,2013-05-10 06:12:00,
2013-05-10 01:21:00,61.0,59.0,29.88,South,180,6.0,9.0,93,-99.99,,,-99.99,,2013-05-10 06:21:00,
2013-05-10 01:32:00,61.0,59.0,29.87,SSW,202,4.0,7.0,93,-99.99,,,-99.99,,2013-05-10 06:32:00,
2013-05-10 01:42:00,61.0,59.0,29.87,SW,225,3.0,6.0,92,-99.99,,,-99.99,,2013-05-10 06:42:00,
2013-05-10 01:51:00,61.0,59.0,29.85,West,270,3.0,4.0,93,-99.99,,,-99.99,,2013-05-10 06:51:00,
2013-05-10 02:01:00,61.0,59.0,29.84,West,270,2.0,3.0,93,-99.99,,,-99.99,,2013-05-10 07:01:00,
2013-05-10 02:11:00,61.0,59.0,29.85,WNW,292,2.0,3.0,94,-99.99,,,-99.99,,2013-05-10 07:11:00,
2013-05-10 02:22:00,61.0,59.0,29.84,West,270,1.0,2.0,94,-99.99,,,-99.99,,2013-05-10 07:22:00,
2013-05-10 02:31:00,61.0,59.0,29.84,NNW,337,3.0,4.0,95,-99.99,,,-99.99,,2013-05-10 07:31:00,
2013-05-10 02:42:00,61.0,59.0,29.84,East,90,4.0,6.0,95,-99.99,,,-99.99,,2013-05-10 07:42:00,
2013-05-10 02:52:00,61.0,59.0,29.85,NW,315,2.0,4.0,95,-99.99,,,-99.99,,2013-05-10 07:52:00,
2013-05-10 03:02:00,61.0,59.0,29.85,WSW,247,2.0,3.0,95,-99.99,,,-99.99,,2013-05-10 08:02:00,
2013-05-10 03:12:00,61.0,59.0,29.84,West,270,0.0,-999.0,95,-99.99,,,-99.99,,2013-05-10 08:12:00,
2013-05-10 03:21:00,61.0,59.0,29.84,NNW,337,3.0,4.0,95,-99.99,,,-99.99,,2013-05-10 08:21:00,
2013-05-10 03:32:00,60.0,59.0,29.84,South,180,0.0,-999.0,94,-99.99,,,-99.99,,2013-05-10 08:32:00,
2013-05-10 03:42:00,59.0,57.0,29.84,WSW,247,3.0,3.0,95,-99.99,,,-99.99,,2013-05-10 08:42:00,
2013-05-10 03:52:00,59.0,58.0,29.84,WSW,247,2.0,3.0,96,-99.99,,,-99.99,,2013-05-10 08:52:00,
2013-05-10 04:01:00,59.0,58.0,29.84,West,270,2.0,3.0,97,-99.99,,,-99.99,,2013-05-10 09:01:00,
2013-05-10 04:11:00,60.0,59.0,29.85,WNW,292,1.0,3.0,97,-99.99,,,-99.99,,2013-05-10 09:11:00,
2013-05-10 04:21:00,60.0,59.0,29.84,NNW,337,2.0,4.0,97,-99.99,,,-99.99,,2013-05-10 09:21:00,
2013-05-10 04:32:00,60.0,59.0,29.84,NNW,337,3.0,4.0,96,-99.99,,,-99.99,,2013-05-10 09:32:00,
2013-05-10 04:42:00,60.0,58.0,29.84,NNW,337,3.0,4.0,96,-99.99,,,-99.99,,2013-05-10 09:42:00,
2013-05-10 04:52:00,59.0,58.0,29.84,NNW,337,3.0,4.0,96,-99.99,,,-99.99,,2013-05-10 09:52:00,
2013-05-10 05:02:00,59.0,58.0,29.85,NW,315,3.0,4.0,97,-99.99,,,-99.99,,2013-05-10 10:02:00,
2013-05-10 05:12:00,59.0,58.0,29.85,WNW,292,3.0,4.0,97,-99.99,,,-99.99,,2013-05-10 10:12:00,
2013-05-10 05:23:00,59.0,58.0,29.85,West,270,3.0,4.0,97,-99.99,,,-99.99,,2013-05-10 10:23:00,
2013-05-10 05:32:00,59.0,58.0,29.85,West,270,3.0,4.0,97,-99.99,,,-99.99,,2013-05-10 10:32:00,
2013-05-10 05:42:00,59.0,58.0,29.86,WNW,292,4.0,5.0,97,-99.99,,,-99.99,,2013-05-10 10:42:00,
2013-05-10 05:52:00,59.0,59.0,29.86,NW,315,4.0,7.0,97,-99.99,,,-99.99,,2013-05-10 10:52:00,
2013-05-10 06:02:00,59.0,58.0,29.86,East,90,8.0,12.0,96,-99.99,,,-99.99,,2013-05-10 11:02:00,
2013-05-10 06:12:00,59.0,58.0,29.86,NNW,337,8.0,12.0,96,-99.99,,,-99.99,,2013-05-10 11:12:00,
2013-05-10 06:21:00,59.0,58.0,29.87,NNW,337,8.0,12.0,96,-99.99,,,-99.99,,2013-05-10 11:21:00,
2013-05-10 06:32:00,59.0,57.0,29.87,NNW,337,7.0,9.0,96,-99.99,,,-99.99,,2013-05-10 11:32:00,
2013-05-10 06:42:00,58.0,57.0,29.87,NNE,22,7.0,13.0,96,-99.99,,,-99.99,,2013-05-10 11:42:00,
2013-05-10 06:51:00,59.0,57.0,29.88,East,90,8.0,11.0,95,-99.99,,,-99.99,,2013-05-10 11:51:00,
2013-05-10 07:01:00,59.0,57.0,29.89,NNW,337,8.0,12.0,95,-99.99,,,-99.99,,2013-05-10 12:01:00,
2013-05-10 07:11:00,59.0,57.0,29.88,NNW,337,5.0,8.0,95,-99.99,,,-99.99,,2013-05-10 12:11:00,
2013-05-10 07:21:00,58.0,57.0,29.88,NNE,22,5.0,8.0,95,-99.99,,,-99.99,,2013-05-10 12:21:00,
2013-05-10 07:32:00,59.0,57.0,29.88,East,90,5.0,7.0,94,-99.99,,,-99.99,,2013-05-10 12:32:00,
2013-05-10 07:42:00,59.0,57.0,29.89,East,90,5.0,8.0,93,-99.99,,,-99.99,,2013-05-10 12:42:00,
2013-05-10 07:51:00,59.0,57.0,29.88,East,90,5.0,7.0,94,-99.99,,,-99.99,,2013-05-10 12:51:00,
2013-05-10 08:01:00,59.0,57.0,29.88,NNW,337,6.0,12.0,93,-99.99,,,-99.99,,2013-05-10 13:01:00,
2013-05-10 08:11:00,60.0,56.0,29.88,East,90,7.0,11.0,88,-99.99,,,-99.99,,2013-05-10 13:11:00,
2013-05-10 08:21:00,61.0,57.0,29.89,NNW,337,6.0,8.0,86,-99.99,,,-99.99,,2013-05-10 13:21:00,
2013-05-10 08:32:00,60.0,56.0,29.89,NNW,337,8.0,11.0,89,-99.99,,,-99.99,,2013-05-10 13:32:00,
2013-05-10 08:41:00,60.0,56.0,29.90,NNW,337,7.0,12.0,87,-99.99,,,-99.99,,2013-05-10 13:41:00,
2013-05-10 08:52:00,60.0,56.0,29.90,East,90,6.0,9.0,88,-99.99,,,-99.99,,2013-05-10 13:52:00,
2013-05-10 09:02:00,59.0,56.0,29.90,NNW,337,8.0,12.0,87,-99.99,,,-99.99,,2013-05-10 14:02:00,
2013-05-10 09:11:00,59.0,55.0,29.90,NNW,337,10.0,13.0,85,-99.99,,,-99.99,,2013-05-10 14:11:00,
2013-05-10 09:21:00,60.0,55.0,29.91,NW,315,8.0,11.0,84,-99.99,,,-99.99,,2013-05-10 14:21:00,
2013-05-10 09:32:00,60.0,55.0,29.91,NW,315,7.0,11.0,85,-99.99,,,-99.99,,2013-05-10 14:32:00,
2013-05-10 09:41:00,59.0,55.0,29.92,East,90,10.0,15.0,88,-99.99,,,-99.99,,2013-05-10 14:41:00,
2013-05-10 09:51:00,58.0,55.0,29.92,East,90,9.0,12.0,89,-99.99,,,-99.99,,2013-05-10 14:51:00,
2013-05-10 10:01:00,58.0,55.0,29.92,NNW,337,8.0,11.0,89,-99.99,,,-99.99,,2013-05-10 15:01:00,
2013-05-10 10:20:00,-999.0,-99.9,29.92,NNW,337,7.0,9.0,89,-99.99,,,-99.99,,2013-05-10 15:20:00,
2013-05-10 10:32:00,58.0,55.0,29.92,NW,315,9.0,12.0,88,-99.99,,,-99.99,,2013-05-10 15:32:00,
2013-05-10 10:42:00,58.0,55.0,29.92,NNW,337,7.0,12.0,88,-99.99,,,-99.99,,2013-05-10 15:42:00,
2013-05-10 10:52:00,58.0,54.0,29.92,NNW,337,8.0,10.0,88,-99.99,,,-99.99,,2013-05-10 15:52:00,
2013-05-10 11:02:00,59.0,55.0,29.93,NW,315,8.0,11.0,88,-99.99,,,-99.99,,2013-05-10 16:02:00,
2013-05-10 11:12:00,58.0,54.0,29.93,NW,315,11.0,15.0,88,-99.99,,,-99.99,,2013-05-10 16:12:00,
2013-05-10 11:23:00,60.0,54.0,29.93,NW,315,10.0,13.0,82,-99.99,,,-99.99,,2013-05-10 16:23:00,
2013-05-10 11:32:00,60.0,54.0,29.93,NW,315,9.0,13.0,80,-99.99,,,-99.99,,2013-05-10 16:32:00,
2013-05-10 11:42:00,60.0,54.0,29.93,NNW,337,9.0,14.0,82,-99.99,,,-99.99,,2013-05-10 16:42:00,
2013-05-10 11:52:00,60.0,55.0,29.93,East,90,9.0,12.0,82,-99.99,,,-99.99,,2013-05-10 16:52:00,
2013-05-10 12:02:00,60.0,54.0,29.92,NNW,337,8.0,12.0,82,-99.99,,,-99.99,,2013-05-10 17:02:00,
2013-05-10 12:12:00,60.0,55.0,29.93,NW,315,8.0,11.0,83,-99.99,,,-99.99,,2013-05-10 17:12:00,
2013-05-10 12:21:00,60.0,55.0,29.92,NNW,337,9.0,13.0,83,-99.99,,,-99.99,,2013-05-10 17:21:00,
2013-05-10 12:32:00,59.0,55.0,29.93,NW,315,11.0,16.0,85,-99.99,,,-99.99,,2013-05-10 17:32:00,
2013-05-10 12:42:00,59.0,55.0,29.93,NW,315,9.0,12.0,86,-99.99,,,-99.99,,2013-05-10 17:42:00,
2013-05-10 12:52:00,59.0,54.0,29.94,East,90,10.0,16.0,86,-99.99,,,-99.99,,2013-05-10 17:52:00,
2013-05-10 13:10:00,-999.0,-99.9,29.94,NW,315,10.0,14.0,86,-99.99,,,-99.99,,2013-05-10 18:10:00,
2013-05-10 13:21:00,59.0,54.0,29.94,NNW,337,9.0,13.0,83,-99.99,,,-99.99,,2013-05-10 18:21:00,
2013-05-10 13:34:00,59.0,54.0,29.93,East,90,9.0,12.0,82,-99.99,,,-99.99,,2013-05-10 18:34:00,
2013-05-10 13:43:00,59.0,54.0,29.93,NNW,337,10.0,14.0,84,-99.99,,,-99.99,,2013-05-10 18:43:00,
2013-05-10 13:54:00,59.0,54.0,29.94,NW,315,9.0,13.0,85,-99.99,,,-99.99,,2013-05-10 18:54:00,
2013-05-10 14:02:00,58.0,54.0,29.94,NNW,337,11.0,17.0,86,-99.99,,,-99.99,,2013-05-10 19:02:00,
2013-05-10 14:11:00,59.0,53.0,29.94,NNW,337,9.0,12.0,83,-99.99,,,-99.99,,2013-05-10 19:11:00,
2013-05-10 14:21:00,58.0,54.0,29.95,NNW,337,9.0,12.0,84,-99.99,,,-99.99,,2013-05-10 19:21:00,
2013-05-10 14:32:00,59.0,54.0,29.95,NNW,337,9.0,11.0,84,-99.99,,,-99.99,,2013-05-10 19:32:00,
2013-05-10 14:42:00,58.0,54.0,29.95,NNW,337,9.0,12.0,86,-99.99,,,-99.99,,2013-05-10 19:42:00,
2013-05-10 14:52:00,58.0,54.0,29.95,NNW,337,8.0,12.0,88,-99.99,,,-99.99,,2013-05-10 19:52:00,
2013-05-10 15:01:00,58.0,54.0,29.95,NNW,337,8.0,11.0,86,-99.99,,,-99.99,,2013-05-10 20:01:00,
2013-05-10 15:12:00,59.0,54.0,29.95,NNW,337,7.0,11.0,83,-99.99,,,-99.99,,2013-05-10 20:12:00,
2013-05-10 15:21:00,59.0,54.0,29.95,NNW,337,6.0,11.0,81,-99.99,,,-99.99,,2013-05-10 20:21:00,
2013-05-10 15:32:00,60.0,54.0,29.94,NNW,337,7.0,10.0,80,-99.99,,,-99.99,,2013-05-10 20:32:00,
2013-05-10 15:41:00,59.0,53.0,29.95,NW,315,9.0,12.0,80,-99.99,,,-99.99,,2013-05-10 20:41:00,
2013-05-10 15:52:00,59.0,53.0,29.95,NNW,337,11.0,14.0,81,-99.99,,,-99.99,,2013-05-10 20:52:00,
2013-05-10 16:01:00,59.0,53.0,29.95,NW,315,10.0,14.0,82,-99.99,,,-99.99,,2013-05-10 21:01:00,
2013-05-10 16:11:00,58.0,53.0,29.95,NW,315,10.0,13.0,83,-99.99,,,-99.99,,2013-05-10 21:11:00,
2013-05-10 16:24:00,58.0,53.0,29.95,East,90,7.0,11.0,84,-99.99,,,-99.99,,2013-05-10 21:24:00,
2013-05-10 16:32:00,59.0,54.0,29.95,East,90,7.0,10.0,82,-99.99,,,-99.99,,2013-05-10 21:32:00,
2013-05-10 16:43:00,59.0,54.0,29.95,NNW,337,6.0,8.0,83,-99.99,,,-99.99,,2013-05-10 21:43:00,
2013-05-10 16:52:00,60.0,54.0,29.95,WNW,292,7.0,10.0,82,-99.99,,,-99.99,,2013-05-10 21:52:00,
2013-05-10 17:02:00,60.0,53.0,29.95,East,90,6.0,8.0,79,-99.99,,,-99.99,,2013-05-10 22:02:00,
2013-05-10 17:12:00,59.0,53.0,29.95,NW,315,8.0,11.0,80,-99.99,,,-99.99,,2013-05-10 22:12:00,
2013-05-10 17:22:00,59.0,53.0,29.95,NW,315,8.0,11.0,79,-99.99,,,-99.99,,2013-05-10 22:22:00,
2013-05-10 17:32:00,59.0,53.0,29.95,NW,315,8.0,11.0,78,-99.99,,,-99.99,,2013-05-10 22:32:00,
2013-05-10 17:42:00,59.0,53.0,29.95,NNW,337,8.0,12.0,80,-99.99,,,-99.99,,2013-05-10 22:42:00,
2013-05-10 17:52:00,58.0,54.0,29.96,NW,315,8.0,14.0,85,-99.99,,,-99.99,,2013-05-10 22:52:00,
2013-05-10 18:02:00,58.0,53.0,29.96,NNW,337,7.0,11.0,86,-99.99,,,-99.99,,2013-05-10 23:02:00,
2013-05-10 18:12:00,57.0,54.0,29.96,East,90,6.0,11.0,88,-99.99,,,-99.99,,2013-05-10 23:12:00,
2013-05-10 18:22:00,57.0,54.0,29.96,East,90,6.0,11.0,90,-99.99,,,-99.99,,2013-05-10 23:22:00,
2013-05-10 18:32:00,56.0,54.0,29.97,NNE,22,8.0,11.0,94,-99.99,,,-99.99,,2013-05-10 23:32:00,
2013-05-10 18:41:00,56.0,54.0,29.97,East,90,5.0,7.0,94,-99.99,,,-99.99,,2013-05-10 23:41:00,
2013-05-10 18:52:00,56.0,54.0,29.96,East,90,5.0,8.0,94,-99.99,,,-99.99,,2013-05-10 23:52:00,
2013-05-10 19:01:00,56.0,54.0,29.97,NNW,337,6.0,9.0,94,-99.99,,,-99.99,,2013-05-11 00:01:00,
2013-05-10 19:11:00,56.0,54.0,29.97,East,90,7.0,10.0,95,-99.99,,,-99.99,,2013-05-11 00:11:00,
2013-05-10 19:21:00,55.0,54.0,29.97,NNW,337,5.0,8.0,96,-99.99,,,-99.99,,2013-05-11 00:21:00,
2013-05-10 19:32:00,55.0,54.0,29.97,East,90,6.0,9.0,96,-99.99,,,-99.99,,2013-05-11 00:32:00,
2013-05-10 19:42:00,55.0,53.0,29.97,East,90,6.0,10.0,96,-99.99,,,-99.99,,2013-05-11 00:42:00,
2013-05-10 19:51:00,55.0,54.0,29.96,East,90,5.0,7.0,96,-99.99,,,-99.99,,2013-05-11 00:51:00,
2013-05-10 20:01:00,55.0,54.0,29.97,NNW,337,5.0,7.0,96,-99.99,,,-99.99,,2013-05-11 01:01:00,
2013-05-10 20:11:00,55.0,54.0,29.97,NNW,337,4.0,6.0,97,-99.99,,,-99.99,,2013-05-11 01:11:00,
2013-05-10 20:21:00,55.0,53.0,29.97,NNW,337,6.0,8.0,96,-99.99,,,-99.99,,2013-05-11 01:21:00,
2013-05-10 20:31:00,54.0,53.0,29.96,East,90,5.0,8.0,94,-99.99,,,-99.99,,2013-05-11 01:31:00,
2013-05-10 20:42:00,54.0,52.0,29.96,East,90,5.0,8.0,93,-99.99,,,-99.99,,2013-05-11 01:42:00,
2013-05-10 20:52:00,54.0,52.0,29.97,East,90,5.0,8.0,93,-99.99,,,-99.99,,2013-05-11 01:52:00,
2013-05-10 21:02:00,54.0,52.0,29.98,East,90,5.0,8.0,93,-99.99,,,-99.99,,2013-05-11 02:02:00,
2013-05-10 21:11:00,54.0,52.0,29.98,East,90,6.0,9.0,94,-99.99,,,-99.99,,2013-05-11 02:11:00,
2013-05-10 21:21:00,54.0,52.0,29.98,NNW,337,7.0,9.0,95,-99.99,,,-99.99,,2013-05-11 02:21:00,
2013-05-10 21:32:00,54.0,53.0,29.98,NNW,337,5.0,8.0,96,-99.99,,,-99.99,,2013-05-11 02:32:00,
2013-05-10 21:42:00,54.0,53.0,29.98,East,90,4.0,6.0,97,-99.99,,,-99.99,,2013-05-11 02:42:00,
2013-05-10 21:51:00,54.0,53.0,29.99,NNW,337,2.0,4.0,97,-99.99,,,-99.99,,2013-05-11 02:51:00,
2013-05-10 22:01:00,54.0,53.0,29.99,NW,315,3.0,5.0,96,-99.99,,,-99.99,,2013-05-11 03:01:00,
2013-05-10 22:11:00,54.0,52.0,29.99,East,90,5.0,7.0,96,-99.99,,,-99.99,,2013-05-11 03:11:00,
2013-05-10 22:21:00,53.0,52.0,29.99,NNW,337,6.0,8.0,95,-99.99,,,-99.99,,2013-05-11 03:21:00,
2013-05-10 22:32:00,54.0,52.0,29.99,NNW,337,4.0,6.0,96,-99.99,,,-99.99,,2013-05-11 03:32:00,
2013-05-10 22:42:00,53.0,52.0,29.99,NW,315,4.0,6.0,97,-99.99,,,-99.99,,2013-05-11 03:42:00,
2013-05-10 22:53:00,53.0,52.0,30.00,NNW,337,6.0,8.0,96,-99.99,,,-99.99,,2013-05-11 03:53:00,
2013-05-10 23:02:00,52.0,51.0,30.00,NNW,337,5.0,6.0,96,-99.99,,,-99.99,,2013-05-11 04:02:00,
2013-05-10 23:12:00,52.0,50.0,29.99,NNW,337,3.0,4.0,96,-99.99,,,-99.99,,2013-05-11 04:12:00,
2013-05-10 23:23:00,51.0,50.0,30.00,NW,315,2.0,2.0,96,-99.99,,,-99.99,,2013-05-11 04:23:00,
2013-05-10 23:33:00,50.0,49.0,29.99,WNW,292,2.0,3.0,97,-99.99,,,-99.99,,2013-05-11 04:33:00,
2013-05-10 23:43:00,50.0,49.0,30.00,WNW,292,2.0,2.0,97,-99.99,,,-99.99,,2013-05-11 04:43:00,
2013-05-10 23:52:00,50.0,49.0,30.00,WNW,292,0.0,-999.0,97,-99.99,,,-99.99,,2013-05-11 04:52:00,